This is the latest recevied weather packets stored in our database for station/object OH2EGI-2. If no packets are shown the sender has not sent any weather packets the latest 10 day(s).
| Time | Temp. | Humidity | Pressure | Rain* | Wind** | Luminosity | Snow |
|---|---|---|---|---|---|---|---|
| 1777744307 | 14.44° C | 47% | 1000.3 hPa | 0 mm | - | - | - |
| 1777744007 | 14.44° C | 46% | 1000.4 hPa | 0 mm | - | - | - |
| 1777743707 | 15° C | 45% | 1000.2 hPa | 0 mm | - | - | - |
| 1777743407 | 15.56° C | 44% | 1000.3 hPa | 0 mm | - | - | - |
| 1777743107 | 15.56° C | 44% | 1000.3 hPa | 0 mm | - | - | - |
| 1777742807 | 16.11° C | 43% | 1000.2 hPa | 0 mm | - | - | - |
| 1777742507 | 16.67° C | 41% | 1000.1 hPa | 0 mm | - | - | - |
| 1777742207 | 17.22° C | 40% | 1000.1 hPa | 0 mm | - | - | - |
| 1777741907 | 17.78° C | 40% | 1000 hPa | 0 mm | - | - | - |
| 1777741607 | 17.78° C | 40% | 1000 hPa | 0 mm | - | - | - |
| 1777741307 | 17.78° C | 39% | 1000 hPa | 0 mm | - | - | - |
| 1777741007 | 18.33° C | 38% | 1000.1 hPa | 0 mm | - | - | - |
| 1777740707 | 18.89° C | 37% | 1000.1 hPa | 0 mm | - | - | - |
| 1777740407 | 18.89° C | 37% | 1000 hPa | 0 mm | - | - | - |
| 1777740107 | 18.89° C | 37% | 1000 hPa | 0 mm | - | - | - |
| 1777739807 | 18.89° C | 36% | 1000 hPa | 0 mm | - | - | - |
| 1777739507 | 19.44° C | 35% | 1000.1 hPa | 0 mm | - | - | - |
| 1777739207 | 20.56° C | 33% | 1000 hPa | 0 mm | - | - | - |
| 1777738907 | 21.67° C | 31% | 1000 hPa | 0 mm | - | - | - |
| 1777738607 | 23.33° C | 29% | 1000.1 hPa | 0 mm | - | - | - |
| 1777738307 | 25° C | 27% | 1000.1 hPa | 0 mm | - | - | - |
| 1777738007 | 26.67° C | 26% | 1000 hPa | 0 mm | - | - | - |
| 1777737707 | 26.67° C | 26% | 999.9 hPa | 0 mm | - | - | - |
| 1777737407 | 26.67° C | 26% | 1000.2 hPa | 0 mm | - | - | - |
| 1777737107 | 27.22° C | 26% | 1000.1 hPa | 0 mm | - | - | - |
* Rain latest hour (hover to see other rain measurements)
** Current wind speed in m/s (hover to see current wind gust speed)